Regional Weather Roundup
Issued by NWS Sterling, VA

Home | Current Version | Previous Version | Text Only | Print | Product List | Glossary Off
Versions: 1 2 3 4 5 6 7 8 9 10 11 12 13 14 15 16 17 18 19 20 21 22 23 24 25 26 27

000
ASUS41 KLWX 211711
RWRLWX

REGIONAL WEATHER ROUNDUP
NATIONAL WEATHER SERVICE BALTIMORE MD/WASHINGTON DC
100 PM EDT THU SEP 21 2017

Note: "FAIR" indicates few or no clouds below 12,000 feet
with no significant weather and/or obstructions to visibility.
 TC=TEMPERATURE CELSIUS

 * =Non NWS site. Station does not report precipitation (e.g. rain,
    snow, etc.), thunder, or fog.

DCZ001-MDZ009-015-VAZ040>042-051-053>054-211800-
WASHINGTON METRO

CITY           SKY/WX    TMP DP  RH WIND       PRES   REMARKS
WASHINGTON NAT PTSUNNY   86  64  47 N8        30.04F
DULLES         PTSUNNY   83  64  52 N5        30.06F
ANDREWS AFB    MOSUNNY   84  63  49 N7        30.04S
FT BELVOIR     MOSUNNY   84  68  58 N6        30.04F
QUANTICO       MOSUNNY   82  69  64 E3        30.05F
COLLEGE PARK*  MOSUNNY   83  64  52 N3        30.04S
LEESBURG*      SUNNY     82  64  54 N3        30.07F
MANASSAS*      SUNNY     84  65  52 NW6       30.06F
GAITHERSBURG*  MOSUNNY   81  66  60 NW3       30.08S

$$

MDZ006>007-011-014-211800-
BALTIMORE METRO

CITY           SKY/WX    TMP DP  RH WIND       PRES   REMARKS
BWI AIRPORT    CLOUDY    85  64  49 VRB7      30.03F
MD SCIENCE CTR   N/A     85  64  49 MISG      30.03F
MARTIN STATE   MOSUNNY   82  72  69 CALM      30.05F
ANNAPOLIS      MOSUNNY   85  67  54 N5        30.03F

$$

MDZ012-015-019>023-211800-
MARYLAND EASTERN SHORE

CITY           SKY/WX    TMP DP  RH WIND       PRES   REMARKS
OCEAN CITY     SUNNY     83  66  56 NE13      30.01F
SALISBURY      MOSUNNY   84  66  54 N7        30.00F
CAMBRIDGE*     SUNNY     82  64  54 NW6       30.02F
EASTON*        MOSUNNY   84  64  51 N7        30.06F

$$

MDZ017>025-211800-
SOUTHERN MARYLAND

CITY           SKY/WX    TMP DP  RH WIND       PRES   REMARKS
PATUXENT RIVER MOSUNNY   84  65  52 N7        30.03S
ST INIGOES     SUNNY     84  66  54 VRB5      30.02F
LEONARDTOWN*   SUNNY     81  64  57 NW5       30.05S

$$

MDZ003>005-211800-
NORTH CENTRAL MARYLAND

CITY           SKY/WX    TMP DP  RH WIND       PRES   REMARKS
FREDERICK*     MOSUNNY   84  52  32 CALM      30.09F
HAGERSTOWN APT MOSUNNY   82  61  48 VRB3      30.08F
WESTMINSTER*   SUNNY     81  64  57 N6        30.08F

$$

MDZ501>502-211800-
WESTERN MARYLAND

CITY           SKY/WX    TMP DP  RH WIND       PRES   REMARKS
OAKLAND*       MOSUNNY   72  55  56 N3        30.18S
CUMBERLAND*    SUNNY     82  61  47 CALM      30.13F

$$

VAZ025>031-211800-
SHENANDOAH VALLEY

CITY           SKY/WX    TMP DP  RH WIND       PRES   REMARKS
WINCHESTER*    SUNNY     81  61  50 CALM      30.09S
FRONT ROYAL*   SUNNY     81  63  54 CALM      30.08F
LURAY*         SUNNY     82  61  47 CALM      30.09F
NEW MARKET*    MOSUNNY   87  56  35 NE6       30.08S
STAUNTON*      SUNNY     80  62  54 NE7       30.13F
WAYNESBORO*    SUNNY     79  62  54 N5        30.12F

$$

WVZ021-048>050-054>055-211800-
EASTERN WEST VIRGINIA PANHANDLE

CITY           SKY/WX    TMP DP  RH WIND       PRES   REMARKS
MARTINSBURG    MOSUNNY   80  61  52 CALM      30.08S
PETERSBURG*    SUNNY     86  64  48 CALM      30.10F

$$

VAZ036>039-050-211800-
CENTRAL FOOTHILLS

CITY           SKY/WX    TMP DP  RH WIND       PRES   REMARKS
CHARLOTTESVILL SUNNY     85  62  46 E6        30.07F
CULPEPER*      SUNNY     85  65  52 N7        30.07S
ORANGE*        SUNNY     82  63  51 CALM      30.06F
GORDONSVILLE*  SUNNY     83  64  54 N3        30.06F
WARRENTON*     SUNNY     86  59  40 N6        30.06F

$$

VAZ055>057-211800-
NORTH AND CENTRAL PIEDMONT

CITY           SKY/WX    TMP DP  RH WIND       PRES   REMARKS
FREDERICKSBRG* SUNNY     84  64  50 N5        30.04F
STAFFORD*      SUNNY     84  62  48 N7        30.09F

$$

NCZ024-NYZ072-PAZ021-071-VAZ022-071-211800-
OTHER REGIONAL OBSERVATIONS

CITY           SKY/WX    TMP DP  RH WIND       PRES   REMARKS
NEW YORK CITY  CLOUDY    79  62  56 N8        30.03F
PHILADELPHIA   MOSUNNY   85  60  42 N8G23     30.01F
PITTSBURGH     MOSUNNY   83  64  52 N3        30.12F
ROANOKE        MOSUNNY   82  65  56 CALM      30.12F
RICHMOND       MOSUNNY   87  64  46 N10       30.04F
RALEIGH        PTSUNNY   85  65  51 NE8       30.05F

$$

ANZ530>537-211800-
MARINE OBSERVATIONS

STATION/POSITION TIME  TEMP    WIND        PRES
                       AIR SEA DIR/SP/G
                 (UTC) (F)     (DEG/KT/KT) (MB)
THOMAS PT LIGHT  1700   76 76   50/  7/  8   N/A
BALT KEY BRIDGE  1642   78     160/  5/  5 1017.1F
COVE POINT       1642   74     350/  9/ 11 1017.7F
LEWISETTA        1642   79 76   10/  5/  6 1016.9F
SOLOMONS ISLAND  1642   79 76  360/  8/ 10 1016.5F
PINEY POINT      1642          320/  9/ 10   N/A

$$





USA.gov is the U.S. government's official web portal to all federal, state and local government web resources and services.